Regional Weather Roundup
Issued by NWS Sioux Falls, SD

Home | Current Version | Previous Version | Graphics & Text | Print | Product List | Glossary Off
Versions: 1 2 3 4 5 6 7 8 9 10 11 12 13 14 15 16 17 18 19 20 21 22 23 24 25 26 27 28 29 30 31 32 33 34 35 36 37 38 39 40 41 42 43 44 45 46 47 48 49 50

000
ASUS43 KFSD 051610
RWRFSD

WEATHER ROUNDUP FOR SE SOUTH DAKOTA/SW MINNESOTA/NW IOWA
NATIONAL WEATHER SERVICE SIOUX FALLS SD
1100 AM CDT THU MAY 05 2016

NOTE: "FAIR" INDICATES FEW OR NO CLOUDS BELOW 12,000 FEET WITH NO
SIGNIFICANT WEATHER AND OR OBSTRUCTIONS TO VISIBILITY.


SDZ038>040-050-052>070-051700-
SOUTHEAST SOUTH DAKOTA

CITY           SKY/WX    TMP DP  RH WIND       PRES   REMARKS
BROOKINGS      SUNNY     70  42  36 SW8       30.02F
CHAMBERLAIN    SUNNY     74  52  45 S8        30.00F
HURON          SUNNY     73  47  39 S9        29.99F
MADISON        FAIR      68  41  37 SW13      30.04S
MITCHELL       SUNNY     73  43  33 SW10      30.02F
SIOUX FALLS    MOSUNNY   66  43  43 SW8       30.05S
WINNER         FAIR      75  47  36 S14       30.00F
YANKTON        SUNNY     66  46  48 SW7       30.04F
$$

MNZ071-072-080-081-089-090-097-098-051700-
SOUTHWEST MINNESOTA

CITY           SKY/WX    TMP DP  RH WIND       PRES   REMARKS
FAIRMONT       SUNNY     61  32  33 SW10      30.07F
JACKSON        SUNNY     64  27  24 SW7       30.07F
LUVERNE        SUNNY     66  32  28 SW8       30.06S
MARSHALL       SUNNY     72  36  26 VRB6      30.03F
MONTEVIDEO     SUNNY     72  37  28 S8        30.02F
PIPESTONE      SUNNY     66  34  30 SW9       30.05S
REDWOOD FALLS  MOSUNNY   68  32  26 S7        30.03F
TRACY          SUNNY     69  35  28 SW6       30.04F
WINDOM         SUNNY     66  36  32 CALM      30.06F
WORTHINGTON    SUNNY     64  35  34 SW7       30.08S
$$

IAZ001>003-012>014-020>022-031-032-NEZ013-014-SDZ071-051700-
NORTHWEST IOWA

CITY           SKY/WX    TMP DP  RH WIND       PRES   REMARKS
CHEROKEE       SUNNY     63  39  41 CALM      30.09S
DENISON        SUNNY     64  36  34 CALM      30.08R
ESTHERVILLE    SUNNY     62  33  33 SW12      30.07F
LE MARS        SUNNY     66  39  37 S6        30.08S
ORANGE CITY    SUNNY     66  37  34 SW5       30.07S
SHELDON        SUNNY     66  36  32 S6        30.06S
SIOUX CITY     SUNNY     68  44  42 S5        30.07F
SPENCER        SUNNY     64  33  31 SW9       30.08F
STORM LAKE     SUNNY     64  30  27 SW5       30.09F
$$

ABBREVIATIONS USED IN REMARKS
   TC - TEMPERATURE IN CELSIUS
  WCI - WIND CHILL INDEX
   HX - HEAT INDEX
  VSB - VISIBILITY




USA.gov is the U.S. government's official web portal to all federal, state and local government web resources and services.